Simultaneous Nadir Overpasses (SNOs) Predictions

Prediction of SNOs between LANDSAT-8 and NOAA-19 Satellite Orbit:

Table of predicted SNOs for the next 14.0 days since TLE Epoch: 11/23/2019
Index Date (LANDSAT-8) Time (LANDSAT-8) Lat,Lon (LANDSAT-8) SZA (LANDSAT-8 ) Date (NOAA-19) Time (NOAA-19) Lat,Lon (NOAA-19) SZA (NOAA-19 ) Distance(km) Time Diff (sec)
1 11/24/2019 22:59:44 79.24,-142.74 100.81 11/24/2019 22:59:49 79.27,-142.68 100.84 3.65 5
2 11/27/2019 04:33:27 -79.28, -45.91 78.73 11/27/2019 04:33:13 -79.28, -46.03 78.74 2.47 14
3 11/27/2019 05:22:57 79.12, 120.70 101.06 11/27/2019 05:24:05 79.07, 123.01 101.22 48.94 68
4 11/29/2019 10:07:10 79.27, 50.58 101.64 11/29/2019 10:06:34 79.30, 50.53 101.66 3.94 36
5 11/29/2019 10:56:37 -79.28,-141.72 78.34 11/29/2019 10:57:34 -79.25,-141.81 78.35 3.01 57
6 12/01/2019 15:40:53 -79.31, 147.42 77.96 12/01/2019 15:39:56 -79.28, 147.43 78.00 2.76 57
7 12/01/2019 16:30:20 79.26, -45.25 101.98 12/01/2019 16:30:55 79.26, -45.12 102.01 2.79 35
8 12/03/2019 21:14:33 79.41,-115.36 102.50 12/03/2019 21:13:25 79.51,-117.96 102.38 54.25 68
9 12/03/2019 22:04:04 -79.27, 51.34 77.70 12/03/2019 22:04:18 -79.29, 51.35 77.67 3.03 14
10 12/06/2019 03:37:46 79.28, 148.04 102.60 12/06/2019 03:37:40 79.30, 148.06 102.61 1.54 6




NCC Satellite Simultaneous Nadir Overpasses (SNOs) Prediction Service
